Find Starlink 32199

NORAD ID: 60320 Int'l Des: 2024-133 Owner: SPXS Country: US Constellation: starlink operational
LEOCIRCULAR

当前视图

正在加载3D地球...

About Starlink 32199

Starlink 32199 (NORAD 60320) is a starlink constellation satellite (v2 mini) launched Jul 28, 2024 by SPXS of US. It operates in LEO, CIRCULAR orbit with a mass of 730.00 kg.

关于 Starlink 32199

正在加载描述...

即将过境

Passes for default location (London). Set your location on the main map for personalized predictions.

高度历史

Loading altitude history...

两行轨道根数

1 60320U 24133V 26173.27306915 -.00002989 00000-0 -88852-4 0 9991
2 60320 53.1609 171.2011 0001977 98.4947 261.6278 15.30188657107650
Epoch: Jun 22, 2026 • Age: 27 hours

当前状态

高度 478.6 km
速度 7.63 km/s
星下点 -10.28°S, 109.54°E
发射日期 Jul 28, 2024
运行时间 1.9 years
类型 internet

技术详情

分类 Payload
质量 730.00 kg
干质量 700.00 kg
总质量 730.00 kg
长度 0.30 m
直径 4.10 m
跨度 29.00 m
形状 Box + pan
制造商 SPXS
平台类型 Starlink V2M
阶段状态 In Orbit
所有者/国家 SPXS/US

Most Searched